Saint Bonnet de Bellac- Haute Vienne - France
Donnes mto: dimanche, 17/06/2012
Date Horaire Temp. E. Hum. E. P.atmo. Pluie Vent Direction Direction Ensoleilleme Solaire P. de rose Temp au vent Rafales
17/06/2012 00:00 13,6 C 89 % 1021,6 hPa 0,1 mm 1,1 km/h (1 Bft) S-SO 202 0 min 0 W/m 11,8 C 13,6 C 4,0 km/h (1 Bft)
17/06/2012 00:10 13,4 C 89 % 1021,7 hPa 0,0 mm 1,1 km/h (1 Bft) N 360 0 min 0 W/m 11,6 C 13,4 C 1,1 km/h (1 Bft)
17/06/2012 00:20 13,4 C 90 % 1021,5 hPa 0,0 mm 1,4 km/h (1 Bft) SO 225 0 min 0 W/m 11,8 C 13,4 C 4,0 km/h (1 Bft)
17/06/2012 00:30 13,3 C 90 % 1021,7 hPa 0,0 mm 0,7 km/h (0 Bft) SO 225 0 min 0 W/m 11,7 C 13,3 C 4,0 km/h (1 Bft)
17/06/2012 00:40 13,3 C 90 % 1021,5 hPa 0,0 mm 0,0 km/h (0 Bft) SO 225 0 min 0 W/m 11,7 C 13,3 C 0,0 km/h (0 Bft)
17/06/2012 00:50 13,2 C 90 % 1021,6 hPa 0,0 mm 0,7 km/h (0 Bft) SO 225 0 min 0 W/m 11,6 C 13,2 C 0,7 km/h (0 Bft)
17/06/2012 01:00 13,1 C 90 % 1021,6 hPa 0,0 mm 0,4 km/h (0 Bft) S-SO 202 0 min 0 W/m 11,5 C 13,1 C 0,4 km/h (0 Bft)
17/06/2012 01:10 13,1 C 90 % 1021,7 hPa 0,0 mm 0,4 km/h (0 Bft) S-SO 202 0 min 0 W/m 11,5 C 13,1 C 0,4 km/h (0 Bft)
17/06/2012 01:20 13,1 C 90 % 1021,9 hPa 0,0 mm 0,4 km/h (0 Bft) O-SO 247 0 min 0 W/m 11,5 C 13,1 C 3,2 km/h (1 Bft)
17/06/2012 01:30 12,9 C 90 % 1022,1 hPa 0,0 mm 0,7 km/h (0 Bft) SO 225 0 min 0 W/m 11,3 C 12,9 C 2,9 km/h (1 Bft)
17/06/2012 01:40 12,9 C 90 % 1022,3 hPa 0,0 mm 1,1 km/h (1 Bft) S-SO 202 0 min 0 W/m 11,3 C 12,9 C 4,0 km/h (1 Bft)
17/06/2012 01:50 12,8 C 90 % 1022,2 hPa 0,1 mm 1,1 km/h (1 Bft) S-SO 202 0 min 0 W/m 11,2 C 12,8 C 3,2 km/h (1 Bft)
17/06/2012 02:00 12,8 C 90 % 1022,2 hPa 0,0 mm 0,7 km/h (0 Bft) SO 225 0 min 0 W/m 11,2 C 12,8 C 4,3 km/h (1 Bft)
17/06/2012 02:10 12,7 C 90 % 1022,0 hPa 0,0 mm 3,2 km/h (1 Bft) S 180 0 min 0 W/m 11,1 C 12,7 C 3,2 km/h (1 Bft)
17/06/2012 02:20 12,6 C 90 % 1021,9 hPa 0,1 mm 0,0 km/h (0 Bft) S-SO 202 0 min 0 W/m 11,0 C 12,6 C 0,0 km/h (0 Bft)
17/06/2012 02:30 12,6 C 90 % 1021,8 hPa 0,0 mm 0,0 km/h (0 Bft) S-SO 202 0 min 0 W/m 11,0 C 12,6 C 0,0 km/h (0 Bft)
17/06/2012 02:40 12,6 C 90 % 1021,9 hPa 0,0 mm 0,4 km/h (0 Bft) S-SO 202 0 min 0 W/m 11,0 C 12,6 C 0,4 km/h (0 Bft)
17/06/2012 02:50 12,6 C 90 % 1021,8 hPa 0,0 mm 0,0 km/h (0 Bft) S-SO 202 0 min 0 W/m 11,0 C 12,6 C 0,0 km/h (0 Bft)
17/06/2012 03:02 12,5 C 90 % 1021,9 hPa 0,1 mm 0,4 km/h (0 Bft) S-SO 202 0 min 0 W/m 10,9 C 12,5 C 0,4 km/h (0 Bft)
17/06/2012 03:10 12,5 C 91 % 1021,7 hPa 0,0 mm 0,0 km/h (0 Bft) S-SO 202 0 min 0 W/m 11,1 C 12,5 C 0,0 km/h (0 Bft)
17/06/2012 03:20 12,4 C 91 % 1021,7 hPa 0,0 mm 0,0 km/h (0 Bft) S-SO 202 0 min 0 W/m 11,0 C 12,4 C 0,0 km/h (0 Bft)
17/06/2012 03:30 12,4 C 91 % 1021,9 hPa 0,1 mm 0,0 km/h (0 Bft) SO 225 0 min 0 W/m 11,0 C 12,4 C 3,2 km/h (1 Bft)
17/06/2012 03:40 12,4 C 91 % 1021,7 hPa 0,0 mm 0,4 km/h (0 Bft) SO 225 0 min 0 W/m 11,0 C 12,4 C 0,4 km/h (0 Bft)
17/06/2012 03:50 12,4 C 91 % 1021,7 hPa 0,0 mm 0,0 km/h (0 Bft) S-SO 202 0 min 0 W/m 11,0 C 12,4 C 0,0 km/h (0 Bft)
17/06/2012 04:00 12,4 C 91 % 1021,6 hPa 0,0 mm 0,0 km/h (0 Bft) S-SO 202 0 min 0 W/m 11,0 C 12,4 C 0,0 km/h (0 Bft)
17/06/2012 04:10 12,4 C 91 % 1021,6 hPa 0,0 mm 0,7 km/h (0 Bft) S 180 0 min 0 W/m 11,0 C 12,4 C 4,3 km/h (1 Bft)
17/06/2012 04:20 12,4 C 92 % 1021,7 hPa 0,0 mm 0,0 km/h (0 Bft) S 180 0 min 0 W/m 11,1 C 12,4 C 0,0 km/h (0 Bft)
17/06/2012 04:30 12,4 C 92 % 1021,6 hPa 0,0 mm 0,0 km/h (0 Bft) S 180 0 min 0 W/m 11,1 C 12,4 C 0,0 km/h (0 Bft)
17/06/2012 04:40 12,4 C 92 % 1021,7 hPa 0,0 mm 0,0 km/h (0 Bft) S 180 0 min 0 W/m 11,1 C 12,4 C 0,0 km/h (0 Bft)
17/06/2012 04:50 12,4 C 92 % 1021,7 hPa 0,0 mm 0,0 km/h (0 Bft) S 180 0 min 0 W/m 11,1 C 12,4 C 0,0 km/h (0 Bft)
17/06/2012 05:00 12,3 C 92 % 1021,5 hPa 0,0 mm 0,0 km/h (0 Bft) S 180 0 min 0 W/m 11,0 C 12,3 C 0,0 km/h (0 Bft)
17/06/2012 05:10 12,4 C 91 % 1021,6 hPa 0,0 mm 0,0 km/h (0 Bft) S 180 0 min 0 W/m 11,0 C 12,4 C 0,0 km/h (0 Bft)
17/06/2012 05:20 12,4 C 92 % 1021,7 hPa 0,0 mm 0,0 km/h (0 Bft) S 180 0 min 0 W/m 11,1 C 12,4 C 0,0 km/h (0 Bft)
17/06/2012 05:30 12,4 C 92 % 1021,6 hPa 0,0 mm 0,0 km/h (0 Bft) S 180 0 min 0 W/m 11,1 C 12,4 C 0,0 km/h (0 Bft)
17/06/2012 05:40 12,4 C 91 % 1021,7 hPa 0,0 mm 0,0 km/h (0 Bft) S 180 0 min 0 W/m 11,0 C 12,4 C 0,0 km/h (0 Bft)
17/06/2012 05:50 12,4 C 92 % 1021,7 hPa 0,0 mm 0,0 km/h (0 Bft) S 180 0 min 0 W/m 11,1 C 12,4 C 0,0 km/h (0 Bft)
17/06/2012 06:00 12,4 C 92 % 1021,6 hPa 0,0 mm 0,0 km/h (0 Bft) S 180 0 min 0 W/m 11,1 C 12,4 C 0,0 km/h (0 Bft)
17/06/2012 06:10 12,4 C 92 % 1021,6 hPa 0,0 mm 0,0 km/h (0 Bft) S 180 0 min 0 W/m 11,1 C 12,4 C 0,0 km/h (0 Bft)
17/06/2012 06:20 12,4 C 92 % 1021,7 hPa 0,0 mm 0,0 km/h (0 Bft) S 180 0 min 0 W/m 11,1 C 12,4 C 0,0 km/h (0 Bft)
17/06/2012 06:30 12,4 C 92 % 1021,6 hPa 0,0 mm 0,0 km/h (0 Bft) S 180 0 min 0 W/m 11,1 C 12,4 C 0,0 km/h (0 Bft)
17/06/2012 06:40 12,5 C 92 % 1021,8 hPa 0,0 mm 0,0 km/h (0 Bft) S 180 0 min 0 W/m 11,2 C 12,5 C 0,0 km/h (0 Bft)
17/06/2012 06:50 12,5 C 92 % 1021,9 hPa 0,0 mm 0,0 km/h (0 Bft) S 180 0 min 0 W/m 11,2 C 12,5 C 0,0 km/h (0 Bft)
17/06/2012 07:00 12,5 C 92 % 1022,0 hPa 0,0 mm 0,0 km/h (0 Bft) S 180 0 min 0 W/m 11,2 C 12,5 C 0,0 km/h (0 Bft)
17/06/2012 07:10 12,5 C 92 % 1021,8 hPa 0,0 mm 0,0 km/h (0 Bft) S 180 0 min 0 W/m 11,2 C 12,5 C 0,0 km/h (0 Bft)
17/06/2012 07:20 12,6 C 92 % 1021,9 hPa 0,0 mm 0,0 km/h (0 Bft) S 180 0 min 0 W/m 11,3 C 12,6 C 0,0 km/h (0 Bft)
17/06/2012 07:30 12,6 C 92 % 1021,9 hPa 0,1 mm 0,0 km/h (0 Bft) E-SE 112 0 min 0 W/m 11,3 C 12,6 C 0,0 km/h (0 Bft)
17/06/2012 07:40 12,8 C 92 % 1021,8 hPa 0,0 mm 0,4 km/h (0 Bft) E-SE 112 0 min 0 W/m 11,5 C 12,8 C 2,9 km/h (1 Bft)
17/06/2012 07:50 12,8 C 92 % 1022,0 hPa 0,0 mm 0,0 km/h (0 Bft) E-SE 112 0 min 0 W/m 11,5 C 12,8 C 0,0 km/h (0 Bft)
17/06/2012 08:00 12,9 C 92 % 1022,0 hPa 0,0 mm 0,0 km/h (0 Bft) E-SE 112 0 min 0 W/m 11,6 C 12,9 C 2,9 km/h (1 Bft)
17/06/2012 08:10 13,1 C 92 % 1022,0 hPa 0,0 mm 0,0 km/h (0 Bft) E-SE 112 0 min 0 W/m 11,8 C 13,1 C 3,2 km/h (1 Bft)
17/06/2012 08:20 13,3 C 92 % 1022,1 hPa 0,0 mm 1,4 km/h (1 Bft) E-SE 112 0 min 0 W/m 12,0 C 13,3 C 4,0 km/h (1 Bft)
17/06/2012 08:30 13,6 C 92 % 1021,9 hPa 0,0 mm 0,4 km/h (0 Bft) E-SE 112 0 min 0 W/m 12,3 C 13,6 C 3,6 km/h (1 Bft)
17/06/2012 08:40 13,9 C 92 % 1022,0 hPa 0,0 mm 0,0 km/h (0 Bft) E-SE 112 0 min 0 W/m 12,6 C 13,9 C 0,0 km/h (0 Bft)
17/06/2012 08:50 14,3 C 92 % 1022,0 hPa 0,0 mm 0,0 km/h (0 Bft) E-SE 112 0 min 0 W/m 13,0 C 14,3 C 0,0 km/h (0 Bft)
17/06/2012 09:00 14,7 C 92 % 1021,9 hPa 0,0 mm 1,1 km/h (1 Bft) E-SE 112 0 min 0 W/m 13,4 C 14,7 C 4,0 km/h (1 Bft)
17/06/2012 09:10 15,1 C 91 % 1021,9 hPa 0,0 mm 0,0 km/h (0 Bft) E-SE 112 0 min 0 W/m 13,6 C 15,1 C 0,0 km/h (0 Bft)
17/06/2012 09:20 15,8 C 91 % 1021,9 hPa 0,0 mm 1,1 km/h (1 Bft) E 90 0 min 0 W/m 14,3 C 15,8 C 4,3 km/h (1 Bft)
17/06/2012 09:30 16,2 C 87 % 1022,0 hPa 0,0 mm 0,0 km/h (0 Bft) E 90 0 min 0 W/m 14,0 C 16,2 C 0,0 km/h (0 Bft)
17/06/2012 09:40 16,6 C 86 % 1022,1 hPa 0,0 mm 0,0 km/h (0 Bft) E 90 0 min 0 W/m 14,2 C 16,6 C 0,0 km/h (0 Bft)
17/06/2012 09:50 17,1 C 83 % 1022,1 hPa 0,0 mm 2,5 km/h (1 Bft) E 90 0 min 0 W/m 14,2 C 17,1 C 4,0 km/h (1 Bft)
17/06/2012 10:00 17,2 C 80 % 1022,1 hPa 0,0 mm 0,0 km/h (0 Bft) NE 45 0 min 0 W/m 13,7 C 17,2 C 0,0 km/h (0 Bft)
17/06/2012 10:10 17,4 C 79 % 1021,9 hPa 0,0 mm 0,0 km/h (0 Bft) S-SO 202 0 min 0 W/m 13,7 C 17,4 C 3,2 km/h (1 Bft)
17/06/2012 10:20 18,0 C 78 % 1021,9 hPa 0,0 mm 3,6 km/h (1 Bft) N-NE 22 0 min 0 W/m 14,1 C 18,0 C 6,8 km/h (2 Bft)
17/06/2012 10:30 18,3 C 75 % 1021,9 hPa 0,0 mm 0,4 km/h (0 Bft) N 360 0 min 0 W/m 13,8 C 18,3 C 4,0 km/h (1 Bft)
17/06/2012 10:40 18,4 C 74 % 1021,8 hPa 0,0 mm 2,9 km/h (1 Bft) E-NE 67 0 min 0 W/m 13,7 C 18,4 C 6,1 km/h (2 Bft)
17/06/2012 10:50 18,3 C 71 % 1021,7 hPa 0,0 mm 0,0 km/h (0 Bft) NE 45 0 min 0 W/m 12,9 C 18,3 C 0,0 km/h (0 Bft)
17/06/2012 11:00 18,6 C 70 % 1021,7 hPa 0,0 mm 1,4 km/h (1 Bft) N-NO 337 0 min 0 W/m 13,0 C 18,6 C 6,1 km/h (2 Bft)
17/06/2012 11:10 18,8 C 70 % 1021,6 hPa 0,0 mm 2,5 km/h (1 Bft) E-NE 67 0 min 0 W/m 13,2 C 18,8 C 2,9 km/h (1 Bft)
17/06/2012 11:20 18,8 C 68 % 1021,5 hPa 0,0 mm 2,5 km/h (1 Bft) N-NE 22 0 min 0 W/m 12,8 C 18,8 C 4,3 km/h (1 Bft)
17/06/2012 11:30 19,2 C 68 % 1021,4 hPa 0,0 mm 0,4 km/h (0 Bft) N-NE 22 0 min 0 W/m 13,1 C 19,2 C 3,2 km/h (1 Bft)
17/06/2012 11:40 19,7 C 67 % 1021,4 hPa 0,0 mm 4,3 km/h (1 Bft) NE 45 0 min 0 W/m 13,4 C 19,7 C 7,6 km/h (2 Bft)
17/06/2012 11:50 19,9 C 65 % 1021,2 hPa 0,0 mm 1,4 km/h (1 Bft) E-NE 67 0 min 0 W/m 13,1 C 19,9 C 6,8 km/h (2 Bft)
17/06/2012 12:00 20,3 C 63 % 1021,1 hPa 0,0 mm 7,6 km/h (2 Bft) E-NE 67 0 min 0 W/m 13,0 C 20,3 C 7,6 km/h (2 Bft)
17/06/2012 12:10 20,6 C 62 % 1021,0 hPa 0,0 mm 2,2 km/h (1 Bft) N 360 0 min 0 W/m 13,1 C 20,6 C 4,3 km/h (1 Bft)
17/06/2012 12:20 20,9 C 61 % 1021,0 hPa 0,0 mm 1,1 km/h (1 Bft) E-SE 112 0 min 0 W/m 13,1 C 20,9 C 1,1 km/h (1 Bft)
17/06/2012 12:30 21,2 C 59 % 1020,8 hPa 0,0 mm 3,2 km/h (1 Bft) N-NE 22 0 min 0 W/m 12,9 C 21,2 C 6,1 km/h (2 Bft)
17/06/2012 12:40 21,1 C 60 % 1020,7 hPa 0,0 mm 1,4 km/h (1 Bft) E-NE 67 0 min 0 W/m 13,0 C 21,1 C 3,6 km/h (1 Bft)
17/06/2012 12:50 21,1 C 59 % 1020,5 hPa 0,0 mm 5,0 km/h (1 Bft) NE 45 0 min 0 W/m 12,8 C 21,1 C 5,0 km/h (1 Bft)
17/06/2012 13:00 21,1 C 58 % 1020,4 hPa 0,0 mm 4,0 km/h (1 Bft) E-NE 67 0 min 0 W/m 12,5 C 21,1 C 4,3 km/h (1 Bft)
17/06/2012 13:10 21,2 C 58 % 1020,3 hPa 0,0 mm 7,9 km/h (2 Bft) NE 45 0 min 0 W/m 12,6 C 21,2 C 12,2 km/h (2 Bft)
17/06/2012 13:20 21,4 C 57 % 1020,0 hPa 0,0 mm 2,5 km/h (1 Bft) E-NE 67 0 min 0 W/m 12,5 C 21,4 C 2,5 km/h (1 Bft)
17/06/2012 13:30 21,6 C 58 % 1019,9 hPa 0,0 mm 2,2 km/h (1 Bft) NE 45 0 min 0 W/m 13,0 C 21,6 C 4,3 km/h (1 Bft)
17/06/2012 13:40 21,8 C 58 % 1019,7 hPa 0,0 mm 6,8 km/h (2 Bft) NE 45 0 min 0 W/m 13,2 C 21,8 C 9,4 km/h (2 Bft)
17/06/2012 13:50 21,8 C 58 % 1019,6 hPa 0,0 mm 6,1 km/h (2 Bft) N 360 0 min 0 W/m 13,2 C 21,8 C 12,2 km/h (2 Bft)
17/06/2012 14:00 21,8 C 57 % 1019,4 hPa 0,0 mm 2,5 km/h (1 Bft) N 360 0 min 0 W/m 12,9 C 21,8 C 4,3 km/h (1 Bft)
17/06/2012 14:10 21,9 C 57 % 1019,1 hPa 0,0 mm 5,8 km/h (2 Bft) N 360 0 min 0 W/m 13,0 C 21,9 C 7,6 km/h (2 Bft)
17/06/2012 14:20 22,0 C 58 % 1019,1 hPa 0,0 mm 4,0 km/h (1 Bft) N-NE 22 0 min 0 W/m 13,3 C 22,0 C 7,2 km/h (2 Bft)
17/06/2012 14:30 22,2 C 59 % 1018,9 hPa 0,0 mm 1,8 km/h (1 Bft) N-NE 22 0 min 0 W/m 13,8 C 22,2 C 4,3 km/h (1 Bft)
17/06/2012 14:40 22,4 C 56 % 1018,8 hPa 0,0 mm 9,0 km/h (2 Bft) NE 45 0 min 0 W/m 13,2 C 22,4 C 13,0 km/h (3 Bft)
17/06/2012 14:50 22,6 C 56 % 1018,5 hPa 0,0 mm 2,5 km/h (1 Bft) E-NE 67 0 min 0 W/m 13,4 C 22,6 C 6,5 km/h (2 Bft)
17/06/2012 15:00 22,6 C 55 % 1018,5 hPa 0,0 mm 3,2 km/h (1 Bft) E-NE 67 0 min 0 W/m 13,1 C 22,6 C 6,8 km/h (2 Bft)
17/06/2012 15:10 22,7 C 54 % 1018,2 hPa 0,0 mm 3,6 km/h (1 Bft) NE 45 0 min 0 W/m 12,9 C 22,7 C 9,0 km/h (2 Bft)
17/06/2012 15:20 22,8 C 53 % 1018,1 hPa 0,0 mm 5,4 km/h (2 Bft) E 90 0 min 0 W/m 12,7 C 22,8 C 8,3 km/h (2 Bft)
17/06/2012 15:30 22,8 C 54 % 1018,0 hPa 0,0 mm 4,7 km/h (1 Bft) NE 45 0 min 0 W/m 13,0 C 22,8 C 9,7 km/h (2 Bft)
17/06/2012 15:40 22,9 C 54 % 1017,8 hPa 0,0 mm 1,4 km/h (1 Bft) E-SE 112 0 min 0 W/m 13,1 C 22,9 C 4,3 km/h (1 Bft)
17/06/2012 15:50 23,1 C 51 % 1017,7 hPa 0,0 mm 5,4 km/h (2 Bft) N-NE 22 0 min 0 W/m 12,4 C 23,1 C 6,8 km/h (2 Bft)
17/06/2012 16:00 23,1 C 52 % 1017,6 hPa 0,0 mm 2,5 km/h (1 Bft) N-NE 22 0 min 0 W/m 12,7 C 23,1 C 4,3 km/h (1 Bft)
17/06/2012 16:10 23,6 C 51 % 1017,4 hPa 0,0 mm 6,1 km/h (2 Bft) NE 45 0 min 0 W/m 12,9 C 23,6 C 11,9 km/h (2 Bft)
17/06/2012 16:20 23,8 C 52 % 1017,4 hPa 0,0 mm 4,3 km/h (1 Bft) NE 45 0 min 0 W/m 13,3 C 23,8 C 6,1 km/h (2 Bft)
17/06/2012 16:30 23,9 C 52 % 1017,2 hPa 0,0 mm 2,9 km/h (1 Bft) E 90 0 min 0 W/m 13,4 C 23,9 C 6,1 km/h (2 Bft)
17/06/2012 16:40 24,2 C 52 % 1017,1 hPa 0,0 mm 2,5 km/h (1 Bft) NE 45 0 min 0 W/m 13,7 C 24,2 C 4,3 km/h (1 Bft)
17/06/2012 16:50 24,4 C 52 % 1016,9 hPa 0,0 mm 4,3 km/h (1 Bft) N 360 0 min 0 W/m 13,9 C 24,4 C 7,6 km/h (2 Bft)
17/06/2012 17:00 24,7 C 51 % 1016,7 hPa 0,0 mm 3,2 km/h (1 Bft) E-NE 67 0 min 0 W/m 13,9 C 24,7 C 4,0 km/h (1 Bft)
17/06/2012 17:10 24,8 C 51 % 1016,5 hPa 0,0 mm 1,4 km/h (1 Bft) NE 45 0 min 0 W/m 14,0 C 24,8 C 3,6 km/h (1 Bft)
17/06/2012 17:20 24,8 C 51 % 1016,3 hPa 0,0 mm 5,0 km/h (1 Bft) E 90 0 min 0 W/m 14,0 C 24,8 C 7,9 km/h (2 Bft)
17/06/2012 17:30 24,8 C 52 % 1016,1 hPa 0,0 mm 4,3 km/h (1 Bft) N-NE 22 0 min 0 W/m 14,3 C 24,8 C 8,3 km/h (2 Bft)
17/06/2012 17:40 24,9 C 52 % 1015,8 hPa 0,0 mm 3,2 km/h (1 Bft) N-NE 22 0 min 0 W/m 14,4 C 24,9 C 4,3 km/h (1 Bft)
17/06/2012 17:50 24,9 C 51 % 1015,6 hPa 0,0 mm 3,6 km/h (1 Bft) NE 45 0 min 0 W/m 14,1 C 24,9 C 6,1 km/h (2 Bft)
17/06/2012 18:00 24,9 C 52 % 1015,5 hPa 0,0 mm 6,1 km/h (2 Bft) N-NE 22 0 min 0 W/m 14,4 C 24,9 C 8,6 km/h (2 Bft)
17/06/2012 18:10 24,9 C 52 % 1015,5 hPa 0,0 mm 2,2 km/h (1 Bft) N-NE 22 0 min 0 W/m 14,4 C 24,9 C 6,1 km/h (2 Bft)
17/06/2012 18:20 25,1 C 53 % 1015,4 hPa 0,0 mm 3,2 km/h (1 Bft) N-NE 22 0 min 0 W/m 14,8 C 25,1 C 6,5 km/h (2 Bft)
17/06/2012 18:30 25,2 C 52 % 1015,2 hPa 0,0 mm 2,5 km/h (1 Bft) NE 45 0 min 0 W/m 14,6 C 25,2 C 7,9 km/h (2 Bft)
17/06/2012 18:40 25,2 C 53 % 1015,1 hPa 0,0 mm 4,7 km/h (1 Bft) N-NE 22 0 min 0 W/m 14,9 C 25,2 C 8,6 km/h (2 Bft)
17/06/2012 18:50 25,2 C 53 % 1014,9 hPa 0,0 mm 4,3 km/h (1 Bft) NE 45 0 min 0 W/m 14,9 C 25,2 C 8,3 km/h (2 Bft)
17/06/2012 19:00 25,1 C 53 % 1014,8 hPa 0,0 mm 4,3 km/h (1 Bft) E-NE 67 0 min 0 W/m 14,8 C 25,1 C 4,3 km/h (1 Bft)
17/06/2012 19:10 24,9 C 53 % 1014,8 hPa 0,0 mm 2,2 km/h (1 Bft) NE 45 0 min 0 W/m 14,6 C 24,9 C 4,3 km/h (1 Bft)
17/06/2012 19:20 24,9 C 54 % 1014,6 hPa 0,0 mm 2,9 km/h (1 Bft) N-NE 22 0 min 0 W/m 14,9 C 24,9 C 7,2 km/h (2 Bft)
17/06/2012 19:30 24,9 C 54 % 1014,5 hPa 0,0 mm 5,0 km/h (1 Bft) NE 45 0 min 0 W/m 14,9 C 24,9 C 9,4 km/h (2 Bft)
17/06/2012 19:40 24,8 C 55 % 1014,3 hPa 0,0 mm 4,0 km/h (1 Bft) NE 45 0 min 0 W/m 15,1 C 24,8 C 4,0 km/h (1 Bft)
17/06/2012 19:50 24,8 C 56 % 1014,2 hPa 0,0 mm 4,3 km/h (1 Bft) E-NE 67 0 min 0 W/m 15,4 C 24,8 C 8,6 km/h (2 Bft)
17/06/2012 20:00 24,6 C 57 % 1014,0 hPa 0,0 mm 5,8 km/h (2 Bft) N-NE 22 0 min 0 W/m 15,5 C 24,6 C 7,9 km/h (2 Bft)
17/06/2012 20:10 24,1 C 58 % 1013,8 hPa 0,0 mm 6,8 km/h (2 Bft) NE 45 0 min 0 W/m 15,3 C 24,1 C 10,4 km/h (2 Bft)
17/06/2012 20:20 23,6 C 60 % 1013,8 hPa 0,0 mm 2,2 km/h (1 Bft) N-NE 22 0 min 0 W/m 15,4 C 23,6 C 4,0 km/h (1 Bft)
17/06/2012 20:30 23,1 C 62 % 1013,8 hPa 0,0 mm 4,7 km/h (1 Bft) NE 45 0 min 0 W/m 15,4 C 23,1 C 6,1 km/h (2 Bft)
17/06/2012 20:40 22,8 C 64 % 1013,8 hPa 0,0 mm 0,0 km/h (0 Bft) NE 45 0 min 0 W/m 15,6 C 22,8 C 0,0 km/h (0 Bft)
17/06/2012 20:50 22,4 C 65 % 1013,6 hPa 0,0 mm 1,8 km/h (1 Bft) NE 45 0 min 0 W/m 15,5 C 22,4 C 2,9 km/h (1 Bft)
17/06/2012 21:00 22,1 C 66 % 1013,5 hPa 0,0 mm 1,8 km/h (1 Bft) NE 45 0 min 0 W/m 15,4 C 22,1 C 3,6 km/h (1 Bft)
17/06/2012 21:10 21,8 C 67 % 1013,3 hPa 0,0 mm 1,8 km/h (1 Bft) E-NE 67 0 min 0 W/m 15,4 C 21,8 C 3,6 km/h (1 Bft)
17/06/2012 21:20 21,4 C 69 % 1013,0 hPa 0,0 mm 1,1 km/h (1 Bft) E-NE 67 0 min 0 W/m 15,5 C 21,4 C 4,0 km/h (1 Bft)
17/06/2012 21:30 21,1 C 70 % 1012,9 hPa 0,0 mm 0,4 km/h (0 Bft) NE 45 0 min 0 W/m 15,4 C 21,1 C 4,3 km/h (1 Bft)
17/06/2012 21:40 20,8 C 71 % 1012,8 hPa 0,0 mm 0,0 km/h (0 Bft) E-NE 67 0 min 0 W/m 15,3 C 20,8 C 2,2 km/h (1 Bft)
17/06/2012 21:50 20,4 C 71 % 1012,8 hPa 0,0 mm 1,4 km/h (1 Bft) E-SE 112 0 min 0 W/m 15,0 C 20,4 C 3,2 km/h (1 Bft)
17/06/2012 22:00 20,2 C 73 % 1012,7 hPa 0,0 mm 2,2 km/h (1 Bft) E-NE 67 0 min 0 W/m 15,2 C 20,2 C 4,0 km/h (1 Bft)
17/06/2012 22:10 20,0 C 74 % 1012,6 hPa 0,0 mm 2,9 km/h (1 Bft) E 90 0 min 0 W/m 15,2 C 20,0 C 4,3 km/h (1 Bft)
17/06/2012 22:20 19,8 C 74 % 1012,6 hPa 0,0 mm 0,0 km/h (0 Bft) E 90 0 min 0 W/m 15,0 C 19,8 C 0,0 km/h (0 Bft)
17/06/2012 22:30 19,5 C 75 % 1012,4 hPa 0,0 mm 0,0 km/h (0 Bft) E 90 0 min 0 W/m 14,9 C 19,5 C 0,0 km/h (0 Bft)
17/06/2012 22:40 19,3 C 76 % 1012,1 hPa 0,0 mm 0,0 km/h (0 Bft) E-NE 67 0 min 0 W/m 15,0 C 19,3 C 0,0 km/h (0 Bft)
17/06/2012 22:50 19,0 C 77 % 1012,0 hPa 0,0 mm 1,8 km/h (1 Bft) E 90 0 min 0 W/m 14,9 C 19,0 C 3,2 km/h (1 Bft)
17/06/2012 23:00 18,8 C 77 % 1011,8 hPa 0,0 mm 0,0 km/h (0 Bft) E-NE 67 0 min 0 W/m 14,7 C 18,8 C 0,0 km/h (0 Bft)
17/06/2012 23:10 18,6 C 78 % 1011,7 hPa 0,0 mm 0,0 km/h (0 Bft) E-NE 67 0 min 0 W/m 14,7 C 18,6 C 0,0 km/h (0 Bft)
17/06/2012 23:20 18,4 C 79 % 1011,4 hPa 0,0 mm 1,1 km/h (1 Bft) NE 45 0 min 0 W/m 14,7 C 18,4 C 4,0 km/h (1 Bft)
17/06/2012 23:30 18,3 C 80 % 1011,2 hPa 0,0 mm 0,4 km/h (0 Bft) E-NE 67 0 min 0 W/m 14,8 C 18,3 C 0,4 km/h (0 Bft)
17/06/2012 23:40 18,1 C 80 % 1010,9 hPa 0,0 mm 0,0 km/h (0 Bft) E-NE 67 0 min 0 W/m 14,6 C 18,1 C 0,0 km/h (0 Bft)
17/06/2012 23:50 18,0 C 81 % 1010,7 hPa 0,0 mm 0,4 km/h (0 Bft) E-SE 112 0 min 0 W/m 14,7 C 18,0 C 3,6 km/h (1 Bft)
_ Min-Heure 05:00 17:50 23:50 - 23:40 - - - - 03:02 05:00 23:40
Minimum _ 12,3 C 51 % 1010,7 hPa - 0,0 km/h (0 Bft) - - - - 10,9 C 12,3 C 0,0 km/h (0 Bft)
_ Max-Heure 18:50 09:00 01:40 07:30 14:40 - - 23:50 23:50 20:40 18:50 14:40
Maximum _ 25,2 C 92 % 1022,3 hPa 0,1 mm 9,0 km/h
NE (2 Bft)
- - 0 min 0 W/m 15,6 C 25,2 C 13,0 km/h
NE (3 Bft)
Moyenne _ 18,2 C 74 % 1018,9 hPa #0,6 mm 1,9 km/h (1 Bft) NE - #0 min. 0 W/m 13,0 C 18,2 C 3,6 km/h (1 Bft)
Saint Bonnet de Bellac- Haute Vienne - France